Regional Weather Roundup
Issued by NWS

Current Version | Previous Version | Text Only | Print | Product List | Glossary On
Versions: 1 2 3 4 5 6 7 8 9 10 11 12 13 14 15 16 17 18 19 20 21 22 23 24 25 26 27
000
ASUS45 KREV 290910
RWRNV
NEVADA REGIONAL WEATHER ROUNDUP
NATIONAL WEATHER SERVICE RENO NV
200 AM PDT MON MAY 29 2017

NOTE: "FAIR" INDICATES FEW OR NO CLOUDS BELOW 12,000 FEET WITH NO
SIGNIFICANT WEATHER AND/OR OBSTRUCTIONS TO VISIBILITY.

NVZ001-003-004-291000-
WESTERN NEVADA

CITY           SKY/WX    TMP DP  RH WIND       PRES   REMARKS
RENO           CLEAR     64  40  41 W5        30.11F
CARSON CITY    FAIR      55  37  50 CALM      30.13F
MINDEN         FAIR      46  37  71 E6        30.14S
FALLON         CLEAR     53  28  38 S6        30.06S
LOVELOCK       CLEAR     50  28  42 S6        30.06S
HAWTHORNE      CLEAR     61  27  27 SW5       30.06S
$$

NVZ002-CAZ072-073-291000-
NORTHERN AND CENTRAL SIERRA

CITY           SKY/WX    TMP DP  RH WIND       PRES   REMARKS
S. LAKE TAHOE  CLEAR     45  37  73 CALM      30.22F
TRUCKEE        CLEAR     41  39  93 CALM      30.22F
SQUAW VLY 8000   N/A     45  32  61 N5          N/A
SUSANVILLE     CLEAR     54  39  58 CALM      30.10F
MAMMOTH LAKES  FAIR      46  30  54 W6        30.26S
BRIDGEPORT     FAIR      42  30  62 CALM      30.24S
$$

NVZ030-031-036-291000-
NORTHERN NEVADA

CITY           SKY/WX    TMP DP  RH WIND       PRES   REMARKS
ELKO           CLEAR     47  36  65 W3        30.18S
WINNEMUCCA     CLEAR     55  32  41 SE6       30.11S
WENDOVER       CLEAR     59  33  37 CALM      30.15S
$$

NVZ035-037-291000-
CENTRAL NEVADA

CITY           SKY/WX    TMP DP  RH WIND       PRES   REMARKS
ELY            CLEAR     38  23  55 S10       30.24F
EUREKA           N/A     43  27  53 S6        30.20S
$$

NVZ013-014-291000-
SOUTH CENTRAL NEVADA

CITY           SKY/WX    TMP DP  RH WIND       PRES   REMARKS
TONOPAH        CLEAR     58  21  24 NE10      30.13S
$$

NVZ017-020-022-291000-
SOUTHERN NEVADA

CITY           SKY/WX    TMP DP  RH WIND       PRES   REMARKS
LAS VEGAS      CLEAR     76  17  11 S3        29.88F
N. LAS VEGAS   CLEAR     76  22  13 NW7       29.89S
NELLIS AFB     CLEAR     69  16  13 NE6       29.88S
HENDERSON      CLEAR     70  22  16 S7        29.92F
MERCURY        CLEAR     65  13  13 N5        29.97F
$$




USA.gov is the U.S. government's official web portal to all federal, state and local government web resources and services.